Location: Long Barn
(38.0930°N, 120.1344°W)
Time: 18:57:14
(UTC+00:00)

Hubble Space Telescope - Pass Details

Date: 01 February 2026
Orbit: 478 x 480 km, 28.5° (Epoch: 5 February)

Event Time Altitude Azimuth Distance (km) Brightness Sun altitude
Rises 02:02:58 0° 251° (WSW) 2,512 6.7 -8.4°
Reaches altitude 10° 02:05:57 10° 226° (SW) 1,633 4.3 -8.9°
Maximum altitude 02:08:02 14° 192° (SSW) 1,386 3.2 -9.3°
Drops below altitude 10° 02:10:07 10° 158° (SSE) 1,633 3.2 -9.7°
Sets 02:13:06 0° 133° (SE) 2,509 3.9 -10.3°
Enters shadow 02:13:08 - 133° (SE) 2,523 3.9 -10.3°
